Location: Caltech
(34.1382°N, 118.1253°W)
Time: 12:00:24
(UTC-07:00)

Iridium 14 - Visible Passes

Search period start: 04 July 2015 00:00
Search period end: 14 July 2015 00:00
Orbit: 776 x 779 km, 86.4° (Epoch: 04 July)

Date Brightness Start Highest point End Pass type
(mag) Time Alt. Az. Time Alt. Az. Time Alt. Az.
04 Jul 8.3 03:38:46 10° NNE 03:42:40 22° ENE 03:46:42 10° SE visible
05 Jul 8.9 03:07:35 10° ENE 03:08:43 11° ENE 03:10:15 10° E visible
05 Jul 6.0 04:44:55 10° N 04:50:05 67° W 04:55:15 10° S visible
06 Jul 6.5 04:11:24 10° N 04:16:35 63° E 04:21:44 10° SSE visible
07 Jul 7.6 03:38:19 10° NNE 03:42:55 32° E 03:47:35 10° SE visible
08 Jul 8.5 03:05:54 10° NE 03:09:06 17° ENE 03:12:31 10° ESE visible
08 Jul 6.4 04:45:11 10° NNW 04:50:08 44° W 04:55:02 10° SSW visible
09 Jul 6.0 04:11:26 10° N 04:16:41 87° W 04:21:35 12° S visible
10 Jul 6.9 03:38:05 10° N 03:43:07 48° E 03:47:32 13° SSE visible
10 Jul 7.7 05:20:22 10° NW 05:23:29 16° W 05:26:21 10° WSW visible
11 Jul 8.0 03:05:13 10° NNE 03:09:24 25° E 03:13:32 11° SE visible
11 Jul 6.9 04:45:37 10° NNW 04:50:09 30° W 04:53:58 13° SW visible
12 Jul 8.6 02:33:23 10° NE 02:35:30 13° ENE 02:37:56 10° ESE visible
12 Jul 6.1 04:11:37 10° N 04:16:45 58° W 04:20:00 22° SSW visible
13 Jul 6.2 03:38:02 10° N 03:43:15 72° E 03:46:03 28° SSE visible
